Location: Malvern Link
(52.1333°N, 2.3000°W)
Time: 11:36:46
(UTC+00:00)

MOZHAYETS 4 - Pass Details

Date: 01 July 2022
Orbit: 660 x 679 km, 98.2° (Epoch: 12 August)

Event Time Altitude Azimuth Distance (km) Brightness Sun altitude
Rises 01:00:49 0° 125° (SE) 3,025 10.9 -14.0°
Reaches altitude 10° 01:03:25 10° 111° (ESE) 2,113 10.2 -13.9°
Maximum altitude 01:07:01 23° 59° (ENE) 1,422 9.9 -13.8°
Drops below altitude 10° 01:10:38 10° 8° (N) 2,115 11.7 -13.7°
Sets 01:13:13 0° 354° (N) 3,030 12.5 -13.6°
